DECAYED
Showing default

JILIN-01 GAOFEN 3D 33, 52450 (Decayed)

Orbit data source: Space-Track

JILIN-01 GAOFEN 3D 33, 52450 was a payload satellite owned by Changguang WJ (CN) in LEO that was launched on Thu, 05 May 2022 UTC via a CHANG ZHENG 2D launch vehicle from the Taiyaun Space Center, China (TSC). Payload-class satellites include a variety of spacecraft equipped with specific instruments for various scientific and technological missions. These include communications satellites like Starlink; space stations such as the ISS; scientific satellites like the Hubble; Earth observation satellites from companies like Planet Labs, Umbra, and HawkEye 360; GPS; miniature CubeSats for education and research; and military/defense satellites.

Not visible in the next 10 days
Identifier
52450, 2022-048H
Orbit
Decayed
Country
Flag of CNCN / PRC
Related business
Manufacturer
Changguang WJ
Mission
Decayed Commercial Imaging
Bus & Motor
JL-1, Unknown motor
Mass
42 kg wet, 42 kg dry
Launch date (UTC)
2022-05-05 (4 years ago)
Launch vehicle
CHANG ZHENG 2D
Launch site
Taiyaun Space Center, China (TSC)
Object type
Payload
Rocket body
Debris
Shape & HBR
Box + 2 Pan, 0.8 m
Radar Cross Section
2.000 m², Medium (>0.1 m² and < 1m²)

Expand to show TLE details & history
Last TLE update: 7 months ago

TLE from 7 months ago
0 JILIN-01 GAOFEN 3D 33
1 52450U 22048H   25326.93172090  .14644382  27091-5  18213-3 0  9995
2 52450  97.5503  77.5682 0009051 264.1895  95.8377 16.49430804198288
Epoch: 2025-11-22T22:21Z
TLE epoch observation values (Epoch: 2025-11-22T22:21:40.685Z)
Latitude
-0.00006°
Longitude
39.99538°
Altitude
144.7 km
Speed
7.819 km/s
True Right ascension
05h 10m 16s
True Declination
0° 00' 00"
Sunlit
Object was in full shadow at epoch
Visualization orbit readout
Latitude
Unknown
Longitude
Unknown
Altitude
Unknown
Speed
Unknown
Apparent Right ascension
Unknown
Apparent Declination
Unknown
Sunlit
N/A
Visualization observer readout
Local Sidereal Time
12:47:59
Azimuth
Unknown
Elevation
Unknown
Doppler factor
Unknown
Orbital elements
Apogee altitude
143.534 km
Perigee altitude
131.74 km
Semi-major axis
6,515.774 km
Eccentricity
0.00091
Inclination
97.5503°
RAAN
77.5682°
Arg. of periapsis
264.1895°
True anomaly
95.94087°
Mean anomaly
95.8377°
Eccentric anomaly
95.88928°
Mean motion
4.12662 °/min
Orbital period
87.24 mins
BSTAR
0.00018213
Loading maneuver chart data...
Computing Atmospheric mass density...
Loading historical data...
Loading historical data...
Loading historical data...
Loading historical data...
Loading historical data...
Loading historical data...
Loading historical data...

Documentation

Showing up to 5 results
|